Vertical_Velocity
1 -1 -3 -7 2 -2 -8 -3 -4 -2 -1 -1 -1 -0 -0 -0 -4 1 -2 -0 0 2 -1 5 -0 0 0 -2 -1 1 -1 -2 -2 -2 -2 1 1 -1 -2 -1 -1 -0 1 0 1 1 1 1 -0
1 1 -4 -3 15 -5 0 -9 -1 -1 -0 0 0 -0 1 -1 -0 -2 2 -0 -1 2 1 -4 5 0 0 3 2 -0 1 0 0 -1 -1 -0 -1 0 -1 -1 -1 -1 -1 -0 -1 -1 1 0 0
-2 1 -10 9 2 -1 -2 2 -2 -1 -0 -1 -2 0 1 1 -2 -4 -1 -1 -0 0 0 -1 -1 2 0 2 3 2 0 0 1 -0 -0 -1 -1 -1 -1 -1 -1 -1 -1 -1 -1 -0 0 0 1
-3 -4 -7 33 -0 4 -3 -1 -1 -1 -1 1 0 0 -1 -1 1 -3 -1 -1 4 2 -1 -1 -0 2 1 2 3 1 -0 0 0 0 0 0 1 -0 -1 -1 -0 -0 -1 -0 -1 -1 -1 0 0
2 -8 8 -5 -3 1 -2 -1 0 -1 -1 -0 2 -0 -1 -1 1 -1 -3 0 1 2 -1 -2 5 4 14 17 3 3 0 -0 1 1 1 -0 -0 -1 0 -1 -2 0 -1 -2 -0 -1 -1 -0 -1
-3 -5 13 1 -4 -2 -2 -2 -0 -0 0 -0 -0 -0 -2 -1 1 0 -1 -0 2 2 0 -0 3 6 21 13 9 3 -0 2 1 0 -1 2 0 -1 -1 -1 -1 -3 -1 -2 -1 -2 -3 -1 -0
1 16 -0 4 -4 -0 -3 -4 2 1 0 1 -2 1 -1 -2 -0 -1 -0 -2 0 0 -1 -2 1 1 77 15 4 5 2 3 1 -1 0 -1 1 1 -0 -1 -0 -0 -1 -0 0 0 -1 -1 -1
4 2 -2 3 13 -4 0 -3 -2 4 0 -0 -3 2 1 0 -2 -2 1 -1 0 -2 1 -2 -1 -7 -1 1 1 4 3 -1 -1 -2 1 4 -1 2 -1 -0 0 0 -1 -0 1 1 0 -1 -0
-4 6 7 2 12 -5 -2 0 -0 -3 -0 -1 -1 -1 -1 1 -1 -1 0 -1 0 1 1 3 1 -2 -8 -9 -8 -3 2 1 0 -0 2 1 -1 1 1 2 1 0 1 1 0 -0 1 -0 -1
-3 15 1 -3 -7 0 1 4 -0 -1 3 3 -0 2 0 -1 -2 -0 1 -0 -0 -1 3 6 1 -4 -4 -9 -2 -1 -2 -2 1 1 3 -0 -1 1 1 1 -1 4 1 -0 1 1 0 -1 -1
-1 16 -1 -7 3 3 1 4 1 -4 4 0 1 1 -1 -2 -1 -2 0 -1 -0 2 2 2 1 3 -1 3 1 -1 -3 -2 0 4 0 -1 -1 1 1 1 0 1 0 -1 -0 -0 -1 0 0
7 -7 0 -5 -4 2 0 -0 3 -3 9 0 -4 -1 2 2 1 0 -0 -1 -0 0 1 1 2 2 -0 -4 -3 7 0 -0 -1 -1 -1 -0 1 0 -0 0 1 1 2 0 0 1 1 1 1
1 4 -3 -1 -3 1 -1 1 -2 -1 -1 -6 -2 1 -1 -1 -1 0 -1 -1 -2 -0 3 3 3 3 1 -7 -6 -0 -1 -4 -6 1 -2 -1 1 -1 0 1 0 1 -0 0 -1 -1 0 1 -1
-0 1 2 -3 -1 -3 4 1 1 -3 -5 -1 -2 -1 -1 1 0 1 1 2 1 1 -1 2 2 1 2 -7 -3 3 1 -6 -6 -3 -1 0 0 -1 -1 -1 -1 0 1 0 0 -1 -0 -1 -0
4 3 -2 -2 -2 -2 -0 1 10 -2 -5 -7 -2 -2 2 -0 0 -0 1 -1 -1 -1 1 2 4 -0 -0 -4 2 2 -2 -4 -1 -2 -1 -0 1 -1 1 -0 0 -1 0 0 -1 -1 -1 -0 -1
3 1 2 -1 -4 -5 -9 10 -3 -4 0 0 -1 -1 -2 -0 0 -1 -0 -0 -0 -1 -0 1 0 -0 -1 -3 3 -1 0 -1 -1 -1 2 0 1 0 -0 1 1 -2 -0 -1 1 -0 -1 -1 -0
-9 20 4 0 2 -6 -8 9 1 -3 0 2 3 -1 -1 -1 -1 -1 -2 -1 -1 -2 -1 -1 1 -1 0 -2 -2 -4 -3 -2 -1 0 -0 2 2 1 1 2 1 -1 -0 -2 -2 -0 -0 -0 -1
-3 2 -8 -2 -7 3 3 -3 4 5 0 4 3 2 1 -0 -1 -3 -1 0 0 -0 -1 1 2 2 1 -3 1 1 4 0 -3 0 1 3 1 -1 1 1 0 -1 -2 -1 1 -1 -2 0 1
-3 -7 7 -13 0 -4 2 10 32 10 7 2 1 1 -1 -2 0 1 -2 -0 -1 -0 -3 -3 6 1 -2 1 -4 -5 1 -2 -8 -3 -2 1 -1 0 1 0 -0 -1 -1 -1 -1 -2 0 1 -1
5 -4 0 -10 -10 5 -2 -19 -3 -14 -1 10 3 1 -8 -7 -4 -0 -2 0 -1 1 -2 -2 -1 0 -0 -0 0 -1 1 3 1 -1 -2 3 1 0 1 -1 -0 0 -1 -2 -2 1 -1 -3 -0
2 -0 4 5 -3 2 10 -17 -7 -8 -8 1 4 3 -5 -3 -3 -2 -0 -0 -0 1 -1 -2 -2 -1 -2 -2 -1 0 2 2 2 4 3 1 -1 -0 -0 -1 0 -1 -1 -1 0 1 1 3 3
15 -10 -3 -3 -1 0 5 -13 17 -5 -3 -8 4 0 1 2 0 2 -2 0 -1 -0 -1 -1 -1 0 -1 -3 -3 0 -1 -1 -2 1 -2 -2 -2 1 -0 -0 -0 -0 -1 -1 0 2 3 2 -0
27 -6 -1 1 -2 3 12 7 10 -5 2 -5 -3 3 1 -1 -4 1 -1 0 -3 -1 -1 -0 -1 -1 1 4 2 3 7 2 1 0 -1 -1 -1 -3 -1 -2 -1 -1 -1 3 3 -1 -2 -2 -1
-7 -3 -4 -3 2 8 -4 3 -2 3 -2 5 9 1 -1 1 -1 -1 -4 -1 -1 -2 -1 2 -0 0 1 0 -1 0 2 3 -2 -0 -1 -1 -1 -2 -5 -2 -1 -2 -0 -1 -2 -2 -1 1 -1
-4 1 7 9 6 -1 -6 1 -12 -1 -7 15 -4 -2 -3 -1 -5 -4 -5 -2 -0 -0 -0 0 -1 -0 -3 -1 -1 -2 2 1 2 0 -0 -5 -7 -0 -0 -2 -2 -1 -1 -2 -2 1 -0 1 2
-11 16 9 3 1 2 -2 3 34 -4 -3 -5 -1 -1 5 6 -2 0 0 -4 -0 -2 -1 1 -1 -2 -1 -5 2 2 1 -0 -3 1 0 -1 1 -2 -0 2 -2 -1 -2 -2 -0 1 1 1 -1
7 -5 -7 4 -2 7 3 -2 23 -3 2 1 -8 9 -4 6 3 -1 -2 -4 1 -1 -1 -1 -1 -0 1 -1 -4 0 -1 -4 -3 -2 1 -3 -1 -6 -4 -2 1 -2 0 1 0 -0 2 -1 -1
-8 11 16 4 1 -2 2 -6 11 -4 4 -2 -0 -1 4 3 -1 0 -2 -3 2 -3 -0 -4 -3 1 7 -6 -3 3 1 -0 7 1 -3 1 -6 -4 -2 -5 -3 0 -0 -1 1 1 -1 -2 -0
-8 -4 -10 4 3 6 0 13 -8 0 -3 -1 -1 3 -2 -3 -2 -4 -2 -2 3 -2 -1 -1 -4 -2 1 -6 -4 -2 -14 -2 0 0 -1 -2 -4 -5 -6 -2 1 -2 -1 -1 3 -1 -2 -1 1
1 2 6 9 5 -3 -4 -2 -9 -1 1 -2 0 -2 4 3 -1 -2 -3 -2 -3 1 -1 -1 -4 1 2 -3 3 -4 -1 -4 -4 -7 -3 -4 9 -1 5 -0 -3 -2 -1 1 -4 -1 -2 0 -1
Height
3174 3175 3176 3175 3181 3181 3180 3183 3182 3182 3184 3184 3184 3186 3186 3186 3188 3192 3189 3189 3190 3191 3191 3191 3194 3196 3199 3201 3203 3206 3208 3210 3212 3214 3215 3216 3217 3218 3220 3220 3221 3222 3223 3223 3223 3223 3224 3224 3224
3177 3178 3178 3178 3181 3181 3185 3183 3183 3183 3185 3186 3186 3187 3188 3187 3187 3188 3191 3191 3191 3192 3193 3194 3196 3199 3201 3204 3206 3208 3211 3213 3214 3216 3218 3219 3220 3220 3221 3222 3222 3223 3224 3224 3224 3224 3224 3223 3223
3181 3181 3181 3181 3183 3185 3188 3188 3187 3185 3186 3187 3188 3188 3189 3189 3188 3189 3191 3192 3193 3194 3195 3197 3198 3202 3204 3205 3207 3211 3213 3215 3217 3218 3220 3221 3222 3222 3223 3223 3224 3224 3224 3224 3224 3224 3224 3224 3223
3183 3184 3185 3186 3188 3190 3190 3190 3188 3189 3189 3190 3190 3189 3189 3189 3190 3190 3192 3194 3195 3196 3198 3199 3199 3204 3206 3207 3210 3212 3214 3216 3219 3220 3221 3222 3224 3224 3224 3225 3225 3226 3225 3225 3226 3226 3225 3225 3225
3185 3185 3189 3189 3192 3193 3192 3191 3191 3191 3191 3191 3193 3192 3190 3190 3190 3192 3193 3195 3197 3198 3199 3201 3202 3201 3205 3207 3210 3213 3216 3218 3220 3221 3223 3224 3225 3225 3226 3226 3227 3227 3227 3227 3227 3227 3227 3226 3226
3190 3188 3191 3192 3194 3195 3194 3193 3193 3193 3193 3193 3194 3193 3193 3192 3192 3193 3195 3197 3198 3199 3200 3202 3203 3201 3197 3200 3211 3215 3217 3219 3221 3222 3224 3225 3226 3227 3228 3228 3228 3229 3228 3228 3228 3228 3228 3227 3228
3193 3193 3194 3195 3196 3196 3195 3194 3195 3195 3196 3196 3194 3195 3194 3193 3193 3194 3195 3197 3199 3201 3202 3203 3204 3204 3192 3203 3211 3215 3218 3220 3222 3223 3224 3225 3226 3228 3229 3229 3230 3230 3231 3231 3231 3231 3231 3230 3230
3194 3197 3196 3196 3196 3197 3195 3195 3195 3198 3196 3195 3195 3198 3196 3195 3194 3195 3196 3198 3200 3202 3202 3204 3205 3203 3205 3206 3211 3215 3218 3220 3222 3224 3226 3226 3228 3229 3230 3231 3232 3233 3233 3233 3234 3233 3233 3233 3232
3196 3198 3197 3197 3197 3197 3196 3196 3196 3196 3197 3196 3196 3197 3196 3195 3195 3196 3198 3199 3201 3202 3203 3205 3206 3207 3208 3208 3212 3217 3218 3221 3223 3225 3226 3227 3228 3230 3232 3233 3234 3234 3235 3235 3235 3235 3234 3235 3234
3198 3197 3199 3199 3199 3198 3198 3198 3197 3200 3199 3198 3198 3197 3197 3197 3197 3198 3199 3200 3201 3203 3204 3205 3205 3207 3209 3212 3214 3216 3218 3221 3223 3225 3226 3227 3229 3231 3232 3234 3235 3236 3237 3237 3237 3237 3237 3236 3235
3198 3199 3200 3201 3200 3200 3200 3200 3199 3201 3203 3202 3201 3200 3199 3199 3199 3199 3200 3201 3202 3203 3204 3205 3206 3207 3209 3209 3213 3216 3218 3221 3223 3224 3227 3228 3229 3231 3233 3235 3236 3237 3238 3238 3238 3238 3238 3237 3236
3200 3200 3201 3201 3200 3201 3201 3200 3201 3201 3203 3204 3202 3201 3201 3201 3201 3201 3201 3201 3202 3203 3204 3204 3205 3207 3209 3211 3213 3215 3218 3222 3223 3222 3226 3228 3230 3231 3233 3235 3236 3238 3238 3239 3239 3239 3238 3237 3236
3199 3200 3201 3201 3201 3202 3201 3202 3202 3202 3202 3203 3203 3203 3203 3202 3202 3202 3202 3202 3202 3202 3203 3203 3203 3204 3207 3210 3210 3215 3218 3220 3224 3225 3226 3228 3230 3232 3233 3235 3236 3237 3238 3239 3239 3239 3238 3237 3235
3198 3200 3201 3201 3202 3203 3204 3203 3203 3204 3203 3204 3204 3204 3204 3204 3203 3202 3201 3201 3201 3202 3202 3202 3201 3203 3205 3209 3209 3214 3217 3218 3221 3225 3227 3229 3230 3231 3233 3235 3236 3237 3238 3238 3238 3237 3237 3236 3235
3198 3200 3200 3202 3202 3203 3204 3204 3205 3204 3203 3204 3205 3205 3205 3204 3204 3203 3203 3201 3201 3201 3201 3201 3200 3201 3204 3207 3209 3212 3215 3218 3221 3224 3227 3229 3230 3231 3233 3235 3236 3236 3237 3238 3237 3236 3236 3235 3234
3199 3200 3200 3201 3201 3202 3203 3203 3204 3203 3203 3204 3204 3205 3205 3204 3204 3203 3202 3202 3201 3201 3200 3199 3199 3200 3202 3204 3207 3211 3215 3216 3218 3221 3225 3229 3230 3231 3233 3234 3236 3236 3237 3237 3237 3235 3235 3234 3233
3197 3196 3198 3200 3200 3200 3203 3202 3203 3202 3202 3204 3204 3204 3204 3204 3203 3203 3202 3201 3200 3200 3199 3198 3198 3198 3201 3204 3207 3211 3214 3215 3215 3219 3224 3228 3229 3231 3233 3234 3235 3236 3236 3236 3236 3235 3234 3233 3232
3196 3197 3197 3198 3199 3199 3201 3201 3202 3201 3202 3203 3204 3204 3203 3203 3203 3202 3201 3201 3200 3199 3198 3196 3196 3197 3200 3202 3205 3209 3212 3213 3215 3218 3223 3226 3228 3230 3232 3233 3235 3236 3236 3236 3235 3234 3233 3232 3231
3196 3195 3194 3195 3195 3198 3199 3198 3196 3201 3200 3201 3203 3203 3203 3203 3202 3201 3200 3200 3199 3199 3197 3193 3195 3197 3200 3202 3206 3208 3213 3214 3215 3219 3221 3225 3228 3229 3231 3233 3234 3235 3235 3235 3233 3233 3232 3231 3231
3194 3194 3193 3193 3193 3195 3193 3193 3194 3195 3196 3199 3201 3200 3200 3201 3201 3200 3200 3199 3199 3199 3198 3197 3197 3199 3202 3203 3205 3207 3211 3213 3216 3219 3221 3224 3226 3228 3230 3232 3233 3233 3233 3233 3232 3231 3231 3230 3229
3191 3192 3192 3192 3190 3191 3192 3190 3188 3189 3191 3192 3196 3197 3196 3196 3198 3199 3198 3198 3199 3199 3199 3199 3199 3201 3202 3204 3205 3206 3209 3212 3214 3218 3221 3223 3225 3227 3229 3231 3231 3231 3231 3231 3231 3230 3229 3228 3228
3188 3189 3189 3189 3190 3189 3188 3182 3180 3181 3184 3187 3190 3191 3192 3194 3195 3196 3196 3197 3198 3198 3199 3200 3200 3201 3201 3202 3204 3206 3208 3210 3213 3215 3218 3220 3224 3225 3228 3229 3229 3230 3230 3230 3230 3228 3228 3227 3226
3186 3188 3188 3188 3187 3186 3182 3183 3173 3176 3178 3181 3184 3188 3191 3192 3193 3194 3195 3196 3196 3197 3198 3200 3200 3201 3202 3202 3202 3203 3206 3208 3210 3213 3215 3218 3221 3223 3226 3227 3228 3228 3228 3228 3227 3226 3225 3224 3221
3184 3186 3185 3185 3185 3181 3178 3179 3168 3170 3173 3177 3181 3184 3187 3190 3191 3193 3194 3194 3195 3196 3198 3200 3201 3200 3199 3200 3200 3201 3203 3206 3208 3210 3213 3216 3220 3223 3225 3226 3227 3227 3227 3226 3226 3225 3223 3222 3221
3184 3185 3180 3178 3179 3174 3176 3176 3169 3170 3169 3174 3176 3180 3184 3186 3188 3190 3192 3193 3195 3196 3197 3200 3200 3200 3199 3198 3198 3199 3201 3205 3208 3210 3212 3216 3220 3223 3225 3225 3226 3225 3225 3225 3224 3223 3221 3220 3219
3182 3181 3179 3176 3173 3169 3171 3168 3166 3168 3168 3170 3175 3179 3183 3185 3186 3189 3191 3192 3194 3196 3197 3200 3200 3200 3200 3200 3200 3200 3201 3205 3208 3211 3214 3218 3222 3223 3223 3223 3224 3225 3224 3223 3222 3220 3218 3217 3216
3178 3180 3180 3177 3171 3170 3165 3167 3165 3166 3166 3169 3173 3178 3180 3182 3184 3187 3189 3191 3193 3195 3198 3200 3201 3202 3204 3201 3200 3202 3204 3207 3210 3213 3216 3218 3221 3221 3223 3224 3223 3223 3222 3220 3219 3217 3215 3215 3213
3175 3176 3176 3174 3169 3168 3159 3162 3162 3164 3164 3167 3171 3175 3178 3179 3182 3185 3187 3190 3191 3194 3197 3199 3201 3204 3204 3204 3203 3203 3206 3209 3213 3214 3216 3218 3221 3222 3222 3222 3221 3220 3218 3217 3215 3215 3214 3213 3212
3171 3172 3174 3173 3170 3164 3156 3158 3161 3160 3161 3165 3169 3173 3175 3177 3180 3183 3186 3189 3191 3193 3196 3198 3201 3203 3204 3207 3206 3208 3209 3211 3214 3215 3217 3219 3220 3220 3219 3218 3217 3217 3216 3215 3214 3214 3213 3213 3211
3164 3166 3168 3167 3165 3166 3167 3162 3160 3156 3158 3163 3168 3172 3174 3175 3178 3181 3184 3187 3189 3192 3195 3197 3200 3202 3204 3206 3207 3209 3210 3213 3214 3216 3217 3217 3217 3216 3216 3216 3216 3215 3215 3213 3214 3213 3213 3212 3211